ETH306 HKJK-HAAB

Flight info

Callsign ETH306
Flight time 1h 51m
Altitude 40000
Route IBRAT3E LOTAS UM308 RUDOL/N0482F410 UM308 SHALA SHALA7A
Aircraft B788/H-SDE1E2E3FGHIJ2J3J4J5M1RWXY/LB1D1

Departure

Time 2026-04-30 13:18
Airport Jomo Kenyatta International Airport (HKJK)

Arrival

Time 2026-04-30 15:09
Airport Addis Ababa Bole International Airport (HAAB)
Time Latitude Longitude Altitude Speed Heading
2026-04-30 12:16 -1.33169 36.92334 5330 ft 0 kts 56°
2026-04-30 12:52 -1.33172 36.92328 5343 ft 2 kts 56°
2026-04-30 12:53 -1.33184 36.92311 5356 ft 3 kts 56°
2026-04-30 12:53 -1.33195 36.92295 5330 ft 2 kts 56°
2026-04-30 12:53 -1.33205 36.92282 5339 ft 3 kts 40°
2026-04-30 12:53 -1.33219 36.92276 5333 ft 3 kts
2026-04-30 12:54 -1.33237 36.92279 5336 ft 3 kts 339°
2026-04-30 12:54 -1.33255 36.92287 5336 ft 2 kts 334°
2026-04-30 12:59 -1.33250 36.92284 5336 ft 1 kts 334°
2026-04-30 13:00 -1.33239 36.92279 5336 ft 2 kts 334°
2026-04-30 13:00 -1.33223 36.92272 5335 ft 3 kts 334°
2026-04-30 13:00 -1.33204 36.92262 5335 ft 3 kts 329°
2026-04-30 13:00 -1.33186 36.92251 5335 ft 3 kts 329°
2026-04-30 13:01 -1.33163 36.92238 5335 ft 4 kts 334°
2026-04-30 13:01 -1.33135 36.92227 5333 ft 5 kts 340°
2026-04-30 13:01 -1.33106 36.92219 5332 ft 4 kts 349°
2026-04-30 13:01 -1.33076 36.92215 5332 ft 4 kts 358°
2026-04-30 13:02 -1.33062 36.92216 5332 ft 1 kts
2026-04-30 13:02 -1.33057 36.92216 5332 ft 2 kts
2026-04-30 13:02 -1.33033 36.92217 5335 ft 5 kts
2026-04-30 13:02 -1.32993 36.92222 5331 ft 6 kts 11°
2026-04-30 13:03 -1.32949 36.92235 5334 ft 7 kts 20°
2026-04-30 13:03 -1.32903 36.92252 5333 ft 5 kts
2026-04-30 13:03 -1.32878 36.92249 5333 ft 3 kts 342°
2026-04-30 13:03 -1.32853 36.92240 5332 ft 4 kts 337°
2026-04-30 13:04 -1.32824 36.92225 5334 ft 6 kts 332°
2026-04-30 13:04 -1.32791 36.92211 5334 ft 4 kts 349°
2026-04-30 13:04 -1.32771 36.92211 5331 ft 2 kts
2026-04-30 13:04 -1.32761 36.92212 5331 ft 1 kts 25°
2026-04-30 13:05 -1.32750 36.92218 5336 ft 4 kts 29°
2026-04-30 13:05 -1.32730 36.92233 5334 ft 3 kts 52°
2026-04-30 13:05 -1.32708 36.92263 5336 ft 8 kts 54°
2026-04-30 13:06 -1.32611 36.92399 5336 ft 15 kts 53°
2026-04-30 13:06 -1.32541 36.92493 5335 ft 19 kts 53°
2026-04-30 13:06 -1.32459 36.92610 5334 ft 22 kts 57°
2026-04-30 13:06 -1.32376 36.92744 5336 ft 23 kts 50°
2026-04-30 13:07 -1.32262 36.92877 5317 ft 26 kts 54°
2026-04-30 13:07 -1.32170 36.93001 5319 ft 19 kts 53°
2026-04-30 13:07 -1.32090 36.93121 5315 ft 23 kts 59°
2026-04-30 13:07 -1.32011 36.93266 5313 ft 25 kts 63°
2026-04-30 13:08 -1.31931 36.93396 5314 ft 19 kts 46°
2026-04-30 13:08 -1.31837 36.93473 5315 ft 18 kts 39°
2026-04-30 13:08 -1.31759 36.93561 5310 ft 17 kts 55°
2026-04-30 13:08 -1.31688 36.93661 5308 ft 18 kts 53°
2026-04-30 13:09 -1.31610 36.93769 5310 ft 20 kts 54°
2026-04-30 13:09 -1.31528 36.93881 5308 ft 21 kts 52°
2026-04-30 13:09 -1.31434 36.93986 5304 ft 15 kts 20°
2026-04-30 13:09 -1.31379 36.93975 5302 ft 6 kts 328°
2026-04-30 13:10 -1.31339 36.93949 5303 ft 8 kts 324°
2026-04-30 13:10 -1.31285 36.93910 5305 ft 10 kts 323°
2026-04-30 13:10 -1.31262 36.93894 5302 ft 0 kts 323°
2026-04-30 13:15 -1.31255 36.93888 5302 ft 4 kts 323°
2026-04-30 13:15 -1.31222 36.93864 5301 ft 8 kts 323°
2026-04-30 13:16 -1.31191 36.93827 5303 ft 4 kts 287°
2026-04-30 13:16 -1.31190 36.93809 5303 ft 2 kts 262°
2026-04-30 13:16 -1.31193 36.93792 5304 ft 2 kts 252°
2026-04-30 13:17 -1.31205 36.93766 5303 ft 3 kts 239°
2026-04-30 13:17 -1.31211 36.93757 5302 ft 0 kts 233°
2026-04-30 13:17 -1.31229 36.93734 5306 ft 28 kts 233°
2026-04-30 13:18 -1.31713 36.93076 5309 ft 144 kts 233°
2026-04-30 13:18 -1.33217 36.90936 6649 ft 186 kts 229°
2026-04-30 13:18 -1.33927 36.89922 7611 ft 189 kts 229°
2026-04-30 13:19 -1.34850 36.88827 8084 ft 221 kts 229°
2026-04-30 13:19 -1.35840 36.87521 8653 ft 251 kts 232°
2026-04-30 13:19 -1.36924 36.86002 9282 ft 280 kts 233°
2026-04-30 13:19 -1.38087 36.84382 9937 ft 303 kts 233°
2026-04-30 13:20 -1.39344 36.82662 10024 ft 306 kts 233°
2026-04-30 13:20 -1.40609 36.80934 10027 ft 301 kts 233°
2026-04-30 13:20 -1.41820 36.79272 10018 ft 299 kts 233°
2026-04-30 13:20 -1.43040 36.77593 10016 ft 299 kts 233°
2026-04-30 13:21 -1.44261 36.75914 10012 ft 299 kts 234°
2026-04-30 13:21 -1.45104 36.74036 10018 ft 299 kts 260°
2026-04-30 13:21 -1.45061 36.71972 10014 ft 301 kts 286°
2026-04-30 13:22 -1.42344 36.68781 10159 ft 337 kts 340°
2026-04-30 13:22 -1.40010 36.68297 10704 ft 357 kts 355°
2026-04-30 13:22 -1.34961 36.68034 12797 ft 368 kts 358°
2026-04-30 13:23 -1.32425 36.67888 13828 ft 374 kts 356°
2026-04-30 13:23 -1.27152 36.67522 15726 ft 384 kts 356°
2026-04-30 13:24 -1.25388 36.67420 16333 ft 388 kts 356°
2026-04-30 13:24 -1.22520 36.67253 17271 ft 394 kts 356°
2026-04-30 13:25 -1.16964 36.66897 18923 ft 405 kts 356°
2026-04-30 13:25 -1.11305 36.66550 20365 ft 414 kts 356°
2026-04-30 13:26 -1.02533 36.66001 22445 ft 429 kts 356°
2026-04-30 13:26 -0.96521 36.65629 23773 ft 439 kts 356°
2026-04-30 13:27 -0.90365 36.65245 24860 ft 447 kts 356°
2026-04-30 13:28 -0.80954 36.64660 26389 ft 458 kts 356°
2026-04-30 13:28 -0.74522 36.64260 27366 ft 465 kts 356°
2026-04-30 13:28 -0.71282 36.64058 27866 ft 468 kts 356°
2026-04-30 13:29 -0.64761 36.63652 28781 ft 475 kts 356°
2026-04-30 13:29 -0.58116 36.63239 29672 ft 482 kts 357°
2026-04-30 13:30 -0.47975 36.62608 30813 ft 491 kts 357°
2026-04-30 13:31 -0.41134 36.62183 31525 ft 495 kts 356°
2026-04-30 13:31 -0.30735 36.61535 32471 ft 502 kts 356°
2026-04-30 13:32 -0.23808 36.61105 33241 ft 502 kts 356°
2026-04-30 13:32 -0.16857 36.60672 34148 ft 498 kts 356°
2026-04-30 13:33 -0.09941 36.60242 34973 ft 495 kts 356°
2026-04-30 13:33 -0.03135 36.59819 35768 ft 492 kts 356°
2026-04-30 13:34 0.00270 36.59607 36169 ft 490 kts 356°
2026-04-30 13:34 0.10446 36.58974 37299 ft 487 kts 356°
2026-04-30 13:35 0.13819 36.58764 37667 ft 485 kts 356°
2026-04-30 13:35 0.20549 36.58345 38399 ft 483 kts 356°
2026-04-30 13:36 0.27232 36.57930 39053 ft 480 kts 356°
2026-04-30 13:36 0.30510 36.57726 39318 ft 479 kts 356°
2026-04-30 13:36 0.37148 36.57313 39859 ft 477 kts 357°
2026-04-30 13:37 0.40461 36.57107 40020 ft 479 kts 357°
2026-04-30 13:37 0.47160 36.56690 40007 ft 480 kts 357°
2026-04-30 13:38 0.57105 36.56071 39989 ft 476 kts 357°
2026-04-30 13:39 0.70261 36.55253 41582 ft 476 kts 356°
2026-04-30 13:39 0.76990 36.54833 41307 ft 491 kts 356°
2026-04-30 13:40 0.80422 36.54620 41171 ft 492 kts 356°
2026-04-30 13:40 0.83324 36.54441 41061 ft 492 kts 355°
2026-04-30 13:40 0.86736 36.54229 40936 ft 491 kts 355°
2026-04-30 13:41 0.93491 36.53807 40691 ft 490 kts 355°
2026-04-30 13:41 0.99754 36.53699 40516 ft 491 kts
2026-04-30 13:42 1.06415 36.55386 40322 ft 496 kts 14°
2026-04-30 13:42 1.08481 36.55999 38712 ft 496 kts 15°
2026-04-30 13:42 1.14661 36.57814 40154 ft 491 kts 16°
2026-04-30 13:43 1.19013 36.59094 40012 ft 493 kts 16°
2026-04-30 13:43 1.22295 36.60061 40010 ft 492 kts 16°
2026-04-30 13:43 1.28866 36.61994 40009 ft 492 kts 16°
2026-04-30 13:44 1.35430 36.63926 40013 ft 491 kts 16°
2026-04-30 13:44 1.40840 36.65518 40007 ft 483 kts 16°
2026-04-30 13:45 1.51630 36.68694 40011 ft 489 kts 16°
2026-04-30 13:46 1.57652 36.70467 39996 ft 490 kts 15°
2026-04-30 13:46 1.63696 36.72243 39999 ft 499 kts 13°
2026-04-30 13:47 1.70294 36.74191 40000 ft 491 kts 13°
2026-04-30 13:47 1.76823 36.76108 40002 ft 490 kts 13°
2026-04-30 13:48 1.81854 36.77585 38474 ft 488 kts 16°
2026-04-30 13:48 1.85027 36.78525 38614 ft 474 kts 17°
2026-04-30 13:48 1.88160 36.79451 38708 ft 469 kts 16°
2026-04-30 13:48 1.92322 36.80673 38861 ft 473 kts 17°
2026-04-30 13:49 1.94455 36.81299 38943 ft 475 kts 17°
2026-04-30 13:49 1.98641 36.82534 39094 ft 478 kts 17°
2026-04-30 13:49 2.00809 36.83174 39171 ft 479 kts 17°
2026-04-30 13:49 2.05056 36.84423 39330 ft 479 kts 17°
2026-04-30 13:50 2.07228 36.85062 39405 ft 478 kts 17°
2026-04-30 13:50 2.13557 36.86927 39639 ft 478 kts 17°
2026-04-30 13:50 2.16744 36.87866 39739 ft 478 kts 17°
2026-04-30 13:51 2.19917 36.88800 39859 ft 477 kts 17°
2026-04-30 13:51 2.23131 36.89747 39895 ft 479 kts 17°
2026-04-30 13:51 2.29507 36.91625 39884 ft 476 kts 17°
2026-04-30 13:52 2.35853 36.93495 39885 ft 475 kts 18°
2026-04-30 13:52 2.41947 36.95291 39885 ft 475 kts 17°
2026-04-30 13:53 2.48214 36.97137 39872 ft 474 kts 17°
2026-04-30 13:53 2.54548 36.99004 39872 ft 475 kts 17°
2026-04-30 13:54 2.60876 37.00869 39875 ft 475 kts 17°
2026-04-30 13:54 2.67246 37.02747 39865 ft 474 kts 17°
2026-04-30 13:55 2.73533 37.04600 39874 ft 474 kts 18°
2026-04-30 13:55 2.79874 37.06470 39875 ft 475 kts 17°
2026-04-30 13:56 2.86202 37.08335 39871 ft 475 kts 18°
2026-04-30 13:56 2.92528 37.10201 39876 ft 475 kts 18°
2026-04-30 13:57 2.98751 37.12036 39871 ft 475 kts 18°
2026-04-30 13:57 3.05129 37.13918 39869 ft 475 kts 18°
2026-04-30 13:58 3.14660 37.16730 39861 ft 475 kts 18°
2026-04-30 13:59 3.21003 37.18600 39856 ft 475 kts 18°
2026-04-30 13:59 3.27301 37.20459 39865 ft 475 kts 18°
2026-04-30 14:00 3.33635 37.22329 39862 ft 476 kts 18°
2026-04-30 14:00 3.43129 37.25131 39862 ft 475 kts 18°
2026-04-30 14:01 3.49474 37.27004 39868 ft 475 kts 18°
2026-04-30 14:01 3.55818 37.28878 39873 ft 475 kts 18°
2026-04-30 14:02 3.62134 37.30743 39882 ft 475 kts 18°
2026-04-30 14:02 3.68468 37.32614 39888 ft 475 kts 18°
2026-04-30 14:03 3.74771 37.34476 39887 ft 476 kts 18°
2026-04-30 14:03 3.81171 37.36367 40166 ft 480 kts 18°
2026-04-30 14:04 3.84381 37.37315 40471 ft 479 kts 18°
2026-04-30 14:04 3.87552 37.38252 40762 ft 477 kts 18°
2026-04-30 14:04 3.90775 37.39205 40878 ft 480 kts 18°
2026-04-30 14:04 3.93944 37.40142 40889 ft 481 kts 18°
2026-04-30 14:05 4.00327 37.42010 40898 ft 476 kts 15°
2026-04-30 14:05 4.06630 37.43708 40901 ft 474 kts 18°
2026-04-30 14:06 4.16238 37.46299 40909 ft 474 kts 16°
2026-04-30 14:07 4.25757 37.48898 40922 ft 474 kts 16°
2026-04-30 14:08 4.35280 37.51472 40925 ft 474 kts 16°
2026-04-30 14:08 4.44833 37.54054 40932 ft 474 kts 16°
2026-04-30 14:09 4.51219 37.55787 40943 ft 474 kts 16°
2026-04-30 14:10 4.60781 37.58375 40951 ft 475 kts 16°
2026-04-30 14:10 4.67161 37.60104 40956 ft 475 kts 16°
2026-04-30 14:11 4.73497 37.61821 40955 ft 475 kts 16°
2026-04-30 14:11 4.79869 37.63548 40960 ft 475 kts 16°
2026-04-30 14:12 4.86263 37.65281 40957 ft 476 kts 16°
2026-04-30 14:12 4.92614 37.67003 40966 ft 476 kts 16°
2026-04-30 14:13 4.99006 37.68737 40977 ft 477 kts 16°
2026-04-30 14:13 5.05396 37.70469 40970 ft 477 kts 16°
2026-04-30 14:14 5.11823 37.72213 40979 ft 477 kts 16°
2026-04-30 14:14 5.18238 37.73954 40974 ft 478 kts 16°
2026-04-30 14:15 5.24613 37.75685 40978 ft 478 kts 16°
2026-04-30 14:15 5.31043 37.77430 40970 ft 479 kts 16°
2026-04-30 14:16 5.37476 37.79177 40968 ft 479 kts 16°
2026-04-30 14:16 5.43852 37.80909 40967 ft 479 kts 16°
2026-04-30 14:17 5.50281 37.82655 40971 ft 479 kts 16°
2026-04-30 14:17 5.56687 37.84396 40979 ft 478 kts 16°
2026-04-30 14:18 5.63115 37.86143 40974 ft 478 kts 16°
2026-04-30 14:18 5.72760 37.88765 40966 ft 480 kts 16°
2026-04-30 14:19 5.82466 37.91404 40967 ft 480 kts 16°
2026-04-30 14:20 5.88860 37.93144 40972 ft 480 kts 16°
2026-04-30 14:20 5.98493 37.95765 40958 ft 479 kts 16°
2026-04-30 14:21 6.04911 37.97512 40969 ft 479 kts 16°
2026-04-30 14:22 6.14556 38.00138 40970 ft 480 kts 16°
2026-04-30 14:22 6.24210 38.02767 40970 ft 479 kts 16°
2026-04-30 14:23 6.37082 38.06275 40958 ft 480 kts 17°
2026-04-30 14:24 6.46730 38.08905 40955 ft 481 kts 17°
2026-04-30 14:25 6.59647 38.12416 40956 ft 481 kts 16°
2026-04-30 14:26 6.69319 38.15037 40939 ft 482 kts 16°
2026-04-30 14:27 6.79033 38.17666 40961 ft 483 kts 16°
2026-04-30 14:27 6.85494 38.19419 40957 ft 484 kts 16°
2026-04-30 14:28 6.95263 38.22067 40967 ft 485 kts 16°
2026-04-30 14:28 7.01761 38.23829 40970 ft 486 kts 16°
2026-04-30 14:29 7.14829 38.27375 40966 ft 486 kts 16°
2026-04-30 14:31 7.31080 38.31788 40945 ft 487 kts 16°
2026-04-30 14:31 7.40902 38.34456 40943 ft 486 kts 16°
2026-04-30 14:32 7.50628 38.37111 40932 ft 486 kts 17°
2026-04-30 14:33 7.57136 38.39045 40924 ft 486 kts 17°
2026-04-30 14:33 7.66887 38.41837 40918 ft 485 kts 18°
2026-04-30 14:34 7.73368 38.43728 40921 ft 486 kts 17°
2026-04-30 14:34 7.79810 38.45581 40327 ft 485 kts 18°
2026-04-30 14:35 7.86332 38.47479 39206 ft 487 kts 17°
2026-04-30 14:35 7.89580 38.48415 38685 ft 487 kts 17°
2026-04-30 14:35 7.92835 38.49356 38038 ft 487 kts 17°
2026-04-30 14:36 7.96054 38.50291 37356 ft 488 kts 17°
2026-04-30 14:36 7.99262 38.51222 37376 ft 474 kts 16°
2026-04-30 14:36 8.02432 38.51891 37424 ft 460 kts
2026-04-30 14:36 8.05589 38.52063 37442 ft 447 kts
2026-04-30 14:37 8.08661 38.52212 37431 ft 436 kts
2026-04-30 14:37 8.11658 38.52366 37392 ft 422 kts
2026-04-30 14:37 8.14499 38.52511 37351 ft 397 kts
2026-04-30 14:37 8.17172 38.52644 37289 ft 374 kts
2026-04-30 14:38 8.19675 38.52768 37218 ft 354 kts
2026-04-30 14:38 8.22086 38.52889 37149 ft 335 kts
2026-04-30 14:38 8.24327 38.53003 37072 ft 318 kts
2026-04-30 14:38 8.26477 38.53110 36980 ft 302 kts
2026-04-30 14:39 8.28524 38.53213 36879 ft 287 kts
2026-04-30 14:39 8.30502 38.53312 36501 ft 285 kts
2026-04-30 14:39 8.32468 38.53412 36115 ft 282 kts
2026-04-30 14:40 8.35892 38.55027 35346 ft 269 kts 35°
2026-04-30 14:40 8.37383 38.56038 35313 ft 253 kts 33°
2026-04-30 14:40 8.38832 38.56968 35176 ft 242 kts 32°
2026-04-30 14:40 8.40280 38.57884 34705 ft 247 kts 32°
2026-04-30 14:41 8.41760 38.58816 34221 ft 253 kts 32°
2026-04-30 14:41 8.43073 38.59934 33694 ft 254 kts 60°
2026-04-30 14:41 8.43580 38.61676 32697 ft 275 kts 97°
2026-04-30 14:41 8.42874 38.63431 32440 ft 266 kts 136°
2026-04-30 14:42 8.41369 38.64358 32473 ft 251 kts 164°
2026-04-30 14:42 8.39676 38.64772 32740 ft 253 kts 175°
2026-04-30 14:42 8.37859 38.64475 32514 ft 285 kts 202°
2026-04-30 14:42 8.36074 38.63389 32234 ft 316 kts 218°
2026-04-30 14:43 8.34331 38.61973 32232 ft 336 kts 217°
2026-04-30 14:43 8.32357 38.60571 32089 ft 360 kts 211°
2026-04-30 14:43 8.30157 38.59124 31535 ft 396 kts 222°
2026-04-30 14:43 8.28294 38.56954 31020 ft 421 kts 238°
2026-04-30 14:44 8.26983 38.54225 29926 ft 442 kts 253°
2026-04-30 14:44 8.26362 38.51151 28673 ft 455 kts 267°
2026-04-30 14:44 8.26451 38.47972 27466 ft 466 kts 280°
2026-04-30 14:44 8.27266 38.44733 26261 ft 476 kts 292°
2026-04-30 14:45 8.28740 38.41762 25112 ft 483 kts 304°
2026-04-30 14:45 8.30844 38.39098 23972 ft 490 kts 315°
2026-04-30 14:45 8.33501 38.36973 23556 ft 479 kts 329°
2026-04-30 14:45 8.36426 38.35548 23396 ft 460 kts 341°
2026-04-30 14:46 8.39483 38.34834 23283 ft 442 kts 354°
2026-04-30 14:46 8.42507 38.34854 23132 ft 425 kts
2026-04-30 14:46 8.45427 38.35248 21743 ft 438 kts
2026-04-30 14:46 8.48519 38.35838 20255 ft 454 kts 12°
2026-04-30 14:47 8.51520 38.36788 19866 ft 444 kts 24°
2026-04-30 14:47 8.54075 38.38293 19890 ft 423 kts 36°
2026-04-30 14:47 8.56258 38.40195 19898 ft 403 kts 46°
2026-04-30 14:47 8.57975 38.42327 19907 ft 385 kts 55°
2026-04-30 14:48 8.59262 38.44626 19906 ft 368 kts 65°
2026-04-30 14:48 8.60116 38.46964 19885 ft 340 kts 73°
2026-04-30 14:48 8.60571 38.49184 19838 ft 310 kts 81°
2026-04-30 14:48 8.60717 38.51412 19811 ft 323 kts 89°
2026-04-30 14:49 8.60543 38.53679 19328 ft 331 kts 98°
2026-04-30 14:49 8.60030 38.55952 18860 ft 335 kts 106°
2026-04-30 14:49 8.59190 38.58132 18414 ft 338 kts 115°
2026-04-30 14:49 8.58009 38.60213 17900 ft 340 kts 123°
2026-04-30 14:50 8.54798 38.63714 16878 ft 342 kts 141°
2026-04-30 14:50 8.52823 38.65067 16380 ft 343 kts 150°
2026-04-30 14:51 8.48384 38.66794 15409 ft 342 kts 168°
2026-04-30 14:51 8.46032 38.67128 14923 ft 342 kts 177°
2026-04-30 14:51 8.41350 38.66719 14006 ft 340 kts 193°
2026-04-30 14:52 8.39040 38.66213 13522 ft 339 kts 192°
2026-04-30 14:52 8.34468 38.65237 12485 ft 337 kts 191°
2026-04-30 14:52 8.32153 38.64729 11974 ft 337 kts 191°
2026-04-30 14:53 8.27594 38.63689 10991 ft 335 kts 195°
2026-04-30 14:53 8.25428 38.62819 10506 ft 335 kts 205°
2026-04-30 14:54 8.21800 38.60336 10530 ft 298 kts 225°
2026-04-30 14:54 8.21048 38.56652 10604 ft 274 kts 297°
2026-04-30 14:55 8.23934 38.54456 10621 ft 265 kts 343°
2026-04-30 14:55 8.25682 38.53860 10624 ft 264 kts 345°
2026-04-30 14:55 8.29105 38.52831 10606 ft 245 kts 347°
2026-04-30 14:56 8.32239 38.51993 10618 ft 218 kts 348°
2026-04-30 14:56 8.35157 38.52069 10145 ft 215 kts 17°
2026-04-30 14:57 8.36594 38.52512 10031 ft 224 kts 23°
2026-04-30 14:57 8.39658 38.53653 10419 ft 247 kts 21°
2026-04-30 14:58 8.42968 38.54646 10155 ft 255 kts 20°
2026-04-30 14:58 8.44642 38.55175 9960 ft 249 kts 21°
2026-04-30 14:58 8.47941 38.56111 9594 ft 242 kts 18°
2026-04-30 14:59 8.51173 38.57066 9910 ft 249 kts 21°
2026-04-30 15:00 8.56191 38.58228 10110 ft 261 kts 16°
2026-04-30 15:00 8.59630 38.59061 9722 ft 254 kts 18°
2026-04-30 15:01 8.62979 38.59939 9478 ft 248 kts 19°
2026-04-30 15:01 8.64632 38.60404 9285 ft 243 kts 20°
2026-04-30 15:01 8.67839 38.61371 9631 ft 243 kts 22°
2026-04-30 15:02 8.69477 38.61908 9848 ft 235 kts 22°
2026-04-30 15:02 8.70494 38.62258 10081 ft 245 kts 23°
2026-04-30 15:03 8.73109 38.63011 9771 ft 260 kts 15°
2026-04-30 15:03 8.76356 38.63553 9618 ft 250 kts 13°
2026-04-30 15:04 8.79737 38.64037 9839 ft 249 kts 12°
2026-04-30 15:04 8.84911 38.64669 10111 ft 253 kts 10°
2026-04-30 15:05 8.90059 38.65500 9449 ft 220 kts 34°
2026-04-30 15:06 8.92096 38.67503 9014 ft 199 kts 53°
2026-04-30 15:06 8.93755 38.69461 8681 ft 157 kts 52°
2026-04-30 15:07 8.95076 38.71156 8263 ft 152 kts 64°
2026-04-30 15:07 8.95722 38.73072 8134 ft 132 kts 78°
2026-04-30 15:08 8.96228 38.74992 8060 ft 141 kts 74°
2026-04-30 15:08 8.97039 38.77711 7770 ft 133 kts 74°
2026-04-30 15:09 8.97557 38.79461 7625 ft 91 kts 74°
2026-04-30 15:09 8.97736 38.79884 7627 ft 1 kts 331°
2026-04-30 15:10 8.97759 38.79871 7628 ft 2 kts 334°
2026-04-30 15:11 8.97801 38.79856 7627 ft 2 kts 345°
2026-04-30 15:11 8.97828 38.79849 7627 ft 1 kts 341°
2026-04-30 15:12 8.97859 38.79839 7627 ft 2 kts 343°
2026-04-30 15:13 8.97884 38.79832 7627 ft 2 kts 344°
2026-04-30 15:14 8.97965 38.79810 7627 ft 4 kts 346°
2026-04-30 15:14 8.98072 38.79780 7627 ft 7 kts 345°
2026-04-30 15:16 8.98252 38.79726 7627 ft 3 kts 341°
2026-04-30 15:17 8.98253 38.79726 7627 ft 0 kts 341°